Volver al catálogo

CZ-6A DEB

ActivoPO
NORAD 55216·DEBRIS·🇨🇳 China

Lanzado Nov 11, 2022 desde Taiyuan Satellite Launch Center

Loading…

Próximos Pases (próximas 24 horas)

TLE

ActualizadoSource: Space-Track

Época: Sep 14, 2026, 02:26 UTC

1 55216U 22151WH  26257.10159114  .00006107  00000-0  10807-2 0  9996
2 55216  98.6049 316.1973 0072124  31.5121 329.0371 14.66036682197437

Sigue CZ-6A DEB en tiempo real con AllMySat

Download on the App Store